Terminal Aerodrome Forecast
Issued by NWS Boston, MA

Home | Current Version | Previous Version | Text Only | Print | Product List | Glossary Off
Versions: 1 2 3 4 5 6 7 8 9 10 11 12 13 14 15 16 17 18 19 20 21 22 23 24 25 26 27 28 29 30 31 32 33 34 35 36 37 38 39 40 41 42 43 44
000 FTUS41 KBOX 022329 TAFORH TAF KORH 022329Z 0300/0324 19004KT P6SM SCT030 FM030400 23009KT P6SM BKN120 FM030700 25007KT P6SM BKN030 FM030900 31007KT P6SM BKN025 FM031100 31008KT P6SM SCT250=

USA.gov is the U.S. government's official web portal to all federal, state and local government web resources and services.